Weather History for Brindisi, Italy

Change the Weather History Date:

Saturday, March 1, 2014

  Actual Average Record
Temperature  
Mean Temperature 52 °F -  
Max Temperature 59 °F 59 °F 68 °F (2002)
Min Temperature 46 °F 46 °F 37 °F (2005)
Degree Days  
Heating Degree Days 12    
Growing Degree Days 2 (Base 50)    
Moisture  
Dew Point 48 °F    
Average Humidity 86    
Maximum Humidity 94    
Minimum Humidity 69    
Precipitation  
Precipitation 0.01 in 0.09 in - ()
Sea Level Pressure  
Sea Level Pressure 29.70 in    
Wind  
Wind Speed 12 mph ()    
Max Wind Speed 24 mph    
Max Gust Speed 40 mph    
Visibility 5.7 miles    
Events Rain    
Averages and records for this station are not official NWS values.
T = Trace of Precipitation, MM = Missing Value Source: Averaged Metar Reports

Daily Weather History Graph

Daily Weather History Graph

Search for Another Location

Airport:

Trip Planner

Search our weather history database for the weather conditions in past years. The results will help you decide how hot, cold, wet, or windy it might be!

Date:

Astronomy

Mar. 01, 2014 Rise Set
Actual Time 6:22 AM CET 5:39 PM CET
Civil Twilight 5:55 AM CET 6:06 PM CET
Nautical Twilight 5:23 AM CET 6:38 PM CET
Astronomical Twilight 4:51 AM CET 7:10 PM CET
Moon 6:04 AM CET (3/1) 6:06 PM CET (3/1)
Length of Visible Light 12h 11m
Length of Day
11h 16m
New Moon, 0% of the Moon is Illuminated
Mar 1
New Moon
Mar 8
First Quarter
Mar 16
Full
Mar 24
Last Quarter
Mar 30
New

Hourly Weather History & Observations

Time (CET) Temp. Windchill Dew Point Humidity Pressure Visibility Wind Dir Wind Speed Gust Speed Precip Events Conditions
12:15 AM 46.4 °F 42.9 °F 42.8 °F 87% 29.89 in - South 6.9 mph - N/A   Clear
12:45 AM 46.4 °F 41.5 °F 42.8 °F 87% 29.89 in 6.2 mi SSE 10.4 mph - N/A   Partly Cloudy
1:00 AM 46 °F - 43 °F 85% 29.90 in 6 mi SSE 10.4 mph - -   Scattered Clouds
1:15 AM 48.2 °F - 44.6 °F 87% 29.86 in 6.2 mi SSE 8.1 mph - N/A   Partly Cloudy
1:45 AM 48.2 °F - 44.6 °F 87% 29.86 in 6.2 mi SSE 8.1 mph - N/A   Partly Cloudy
2:15 AM 48.2 °F - 44.6 °F 87% 29.86 in 6.2 mi SSE 8.1 mph - N/A   Partly Cloudy
2:45 AM 48.2 °F - 44.6 °F 87% 29.86 in 6.2 mi SE 8.1 mph - N/A   Partly Cloudy
3:15 AM 48.2 °F - 44.6 °F 87% 29.83 in 6.2 mi SE 9.2 mph - N/A   Partly Cloudy
3:45 AM 48.2 °F - 44.6 °F 87% 29.83 in 6.2 mi SE 9.2 mph - N/A   Partly Cloudy
4:00 AM 48 °F - 44 °F 83% 29.84 in 6 mi SE 9.2 mph - -   Scattered Clouds
4:15 AM 48.2 °F - 44.6 °F 87% 29.80 in 6.2 mi SE 10.4 mph - N/A   Partly Cloudy
4:45 AM 48.2 °F - 44.6 °F 87% 29.80 in - SSE 12.7 mph - N/A   Clear
5:15 AM 48.2 °F - 44.6 °F 87% 29.80 in - SSE 12.7 mph - N/A   Clear
5:45 AM 48.2 °F - 44.6 °F 87% 29.80 in 6.2 mi SSE 13.8 mph - N/A   Partly Cloudy
6:15 AM 48.2 °F - 44.6 °F 87% 29.80 in 6.2 mi South 11.5 mph - N/A   Partly Cloudy
6:45 AM 48.2 °F - 44.6 °F 87% 29.80 in 6.2 mi South 10.4 mph - N/A   Partly Cloudy
7:00 AM 47 °F - 44 °F 85% 29.80 in 6 mi South 10.4 mph - -   Scattered Clouds
7:15 AM 48.2 °F - 44.6 °F 87% 29.77 in 6.2 mi South 11.5 mph - N/A   Partly Cloudy
7:45 AM 50.0 °F - 46.4 °F 87% 29.77 in 6.2 mi South 15.0 mph - N/A   Partly Cloudy
8:15 AM 51.8 °F - 48.2 °F 88% 29.74 in 6.2 mi SSE 15.0 mph - N/A   Partly Cloudy
8:45 AM 53.6 °F - 50.0 °F 88% 29.74 in 6.2 mi SSE 19.6 mph - N/A   Partly Cloudy
9:15 AM 53.6 °F - 50.0 °F 88% 29.74 in 6.2 mi SSE 17.3 mph - N/A   Partly Cloudy
9:45 AM 55.4 °F - 50.0 °F 82% 29.74 in 6.2 mi SSE 16.1 mph - N/A   Partly Cloudy
10:00 AM 55 °F - 51 °F 81% 29.75 in 6 mi SSE 16.1 mph - -   Scattered Clouds
10:15 AM 55.4 °F - 50.0 °F 82% 29.74 in 6.2 mi South 16.1 mph - N/A   Partly Cloudy
10:45 AM 57.2 °F - 53.6 °F 88% 29.74 in 6.2 mi SSE 17.3 mph - N/A   Scattered Clouds
11:15 AM 57.2 °F - 53.6 °F 88% 29.74 in 6.2 mi South 17.3 mph - N/A   Scattered Clouds
11:45 AM 59.0 °F - 51.8 °F 77% 29.74 in 6.2 mi South 19.6 mph 31.1 mph N/A   Scattered Clouds
12:15 PM 59.0 °F - 51.8 °F 77% 29.71 in 6.2 mi South 20.7 mph 32.2 mph N/A   Scattered Clouds
12:45 PM 59.0 °F - 51.8 °F 77% 29.71 in 6.2 mi South 21.9 mph 33.4 mph N/A   Scattered Clouds
1:00 PM 59 °F - 51 °F 69% 29.72 in 6 mi South 21.9 mph - -   Partly Cloudy
1:15 PM 59.0 °F - 51.8 °F 77% 29.71 in 6.2 mi South 24.2 mph 40.3 mph N/A   Scattered Clouds
1:45 PM 59.0 °F - 51.8 °F 77% 29.71 in 6.2 mi South 23.0 mph 34.5 mph N/A   Scattered Clouds
2:15 PM 59.0 °F - 51.8 °F 77% 29.71 in 6.2 mi South 21.9 mph 33.4 mph N/A   Scattered Clouds
2:45 PM 57.2 °F - 53.6 °F 88% 29.65 in 6.2 mi SSE 20.7 mph 32.2 mph N/A   Scattered Clouds
3:15 PM 57.2 °F - 53.6 °F 88% 29.65 in 6.2 mi SSE 17.3 mph - N/A   Scattered Clouds
3:45 PM 55.4 °F - 51.8 °F 88% 29.62 in 6.2 mi SSE 20.7 mph - N/A   Scattered Clouds
4:00 PM 55 °F - 52 °F 87% 29.63 in 6 mi SSE 20.7 mph - -   Mostly Cloudy
4:15 PM 55.4 °F - 51.8 °F 88% 29.62 in 5.0 mi SSE 19.6 mph - N/A Rain Light Rain
4:45 PM 53.6 °F - 51.8 °F 94% 29.59 in 5.0 mi SE 12.7 mph - N/A Rain Light Rain
5:15 PM 53.6 °F - 51.8 °F 94% 29.59 in 5.0 mi SE 13.8 mph - N/A Rain Light Rain
5:45 PM 53.6 °F - 50.0 °F 88% 29.59 in 5.0 mi SSE 15.0 mph - N/A   Scattered Clouds
6:15 PM 53.6 °F - 50.0 °F 88% 29.59 in 5.0 mi SSE 17.3 mph - N/A   Scattered Clouds
6:45 PM 51.8 °F - 50.0 °F 94% 29.59 in 5.0 mi SSE 15.0 mph - N/A   Scattered Clouds
7:00 PM 53 °F - 49 °F 82% 29.60 in 5 mi SSE 15.0 mph - -   Mist
7:15 PM 51.8 °F - 50.0 °F 94% 29.56 in 5.0 mi SSE 16.1 mph - N/A   Scattered Clouds
7:45 PM 51.8 °F - 48.2 °F 88% 29.56 in 5.0 mi SSE 13.8 mph - N/A   Scattered Clouds
8:15 PM 51.8 °F - 48.2 °F 88% 29.56 in 5.0 mi SSE 15.0 mph - N/A   Scattered Clouds
8:45 PM 51.8 °F - 48.2 °F 88% 29.53 in 5.0 mi SSE 13.8 mph - N/A   Scattered Clouds
9:15 PM 51.8 °F - 48.2 °F 88% 29.53 in 5.0 mi SSE 15.0 mph - N/A   Partly Cloudy
9:45 PM 51.8 °F - 48.2 °F 88% 29.53 in 5.0 mi West 12.7 mph - N/A   Partly Cloudy
10:00 PM 52 °F - 48 °F 82% 29.55 in 5 mi West 12.7 mph - -   Mist
10:15 PM 50.0 °F - 46.4 °F 87% 29.53 in 4.3 mi WSW 5.8 mph - N/A Rain Light Rain
10:45 PM 48.2 °F - 44.6 °F 87% 29.53 in 4.3 mi SSW 6.9 mph - N/A Rain Light Rain
11:15 PM 48.2 °F - 46.4 °F 93% 29.53 in 4.3 mi SSW 9.2 mph - N/A Rain Light Rain
11:45 PM 48.2 °F - 44.6 °F 87% 29.50 in 5.0 mi South 6.9 mph - N/A   Scattered Clouds